Time,TemperatureF,DewpointF,PressureIn,WindDirection,WindDirectionDegrees,WindSpeedMPH,WindSpeedGustMPH,Humidity,HourlyPrecipIn,Conditions,Clouds,dailyrainin,SoftwareType,DateUTC
2013-03-18 00:00:00,60.8,38.1,30.03,North,0,0.0,0.0,43,0.00,CLR,FEW,0.00,WeatherDisplay:10.37,2013-03-18 04:00:00,
2013-03-18 00:01:00,60.6,38.0,30.03,North,0,0.0,0.0,43,0.00,CLR,FEW,0.00,WeatherDisplay:10.37,2013-03-18 04:01:00,
2013-03-18 00:02:00,60.6,38.0,30.03,North,0,0.0,0.0,43,0.00,CLR,FEW,0.00,WeatherDisplay:10.37,2013-03-18 04:02:00,
2013-03-18 00:03:00,60.6,38.0,30.03,North,0,0.0,0.0,43,0.00,CLR,FEW,0.00,WeatherDisplay:10.37,2013-03-18 04:03:00,
2013-03-18 00:08:00,60.4,37.8,30.03,North,0,0.0,0.0,43,0.00,CLR,FEW,0.00,WeatherDisplay:10.37,2013-03-18 04:08:00,
2013-03-18 00:13:00,60.3,37.7,30.03,North,0,0.0,0.0,43,0.00,CLR,FEW,0.00,WeatherDisplay:10.37,2013-03-18 04:13:00,
2013-03-18 00:19:00,60.3,38.2,30.03,North,0,0.0,0.0,44,0.00,CLR,FEW,0.00,WeatherDisplay:10.37,2013-03-18 04:19:00,
2013-03-18 00:24:00,60.3,38.8,30.03,North,0,0.0,0.0,45,0.00,CLR,FEW,0.00,WeatherDisplay:10.37,2013-03-18 04:24:00,
2013-03-18 00:29:00,60.3,38.8,30.00,North,0,0.0,0.0,45,0.00,CLR,FEW,0.00,WeatherDisplay:10.37,2013-03-18 04:29:00,
2013-03-18 00:34:00,60.3,38.8,30.00,North,0,0.0,0.0,45,0.00,CLR,FEW,0.00,WeatherDisplay:10.37,2013-03-18 04:34:00,
2013-03-18 00:39:00,60.1,38.7,30.00,North,0,0.0,0.0,45,0.00,CLR,FEW,0.00,WeatherDisplay:10.37,2013-03-18 04:39:00,
2013-03-18 00:44:00,60.1,38.7,30.03,North,0,0.0,0.0,45,0.00,CLR,FEW,0.00,WeatherDisplay:10.37,2013-03-18 04:44:00,
2013-03-18 00:49:00,59.7,38.3,30.03,North,0,0.0,0.0,45,0.00,CLR,FEW,0.00,WeatherDisplay:10.37,2013-03-18 04:49:00,
2013-03-18 00:54:00,59.4,38.6,30.03,North,0,0.0,0.0,46,0.00,CLR,FEW,0.00,WeatherDisplay:10.37,2013-03-18 04:54:00,
2013-03-18 00:59:00,59.2,40.0,30.03,North,0,0.0,0.0,49,0.00,CLR,FEW,0.00,WeatherDisplay:10.37,2013-03-18 04:59:00,
2013-03-18 01:04:00,58.8,40.2,30.03,North,0,0.0,0.0,50,0.00,CLR,FEW,0.00,WeatherDisplay:10.37,2013-03-18 05:04:00,
2013-03-18 01:09:00,58.6,40.0,30.03,North,0,0.0,0.0,50,0.00,CLR,FEW,0.00,WeatherDisplay:10.37,2013-03-18 05:09:00,
2013-03-18 01:14:00,58.6,41.5,30.03,North,0,0.0,0.0,53,0.00,CLR,FEW,0.00,WeatherDisplay:10.37,2013-03-18 05:14:00,
2013-03-18 01:19:00,58.5,41.9,30.03,North,0,0.0,0.0,54,0.00,CLR,FEW,0.00,WeatherDisplay:10.37,2013-03-18 05:19:00,
2013-03-18 01:24:00,57.9,42.8,30.03,North,0,0.0,0.0,57,0.00,CLR,FEW,0.00,WeatherDisplay:10.37,2013-03-18 05:24:00,
2013-03-18 01:29:00,57.4,42.7,30.03,North,0,0.0,0.0,58,0.00,CLR,FEW,0.00,WeatherDisplay:10.37,2013-03-18 05:29:00,
2013-03-18 01:34:00,56.7,45.0,30.03,North,0,0.0,0.0,65,0.00,CLR,FEW,0.00,WeatherDisplay:10.37,2013-03-18 05:34:00,
2013-03-18 01:39:00,56.1,46.1,30.03,North,0,0.0,0.0,69,0.00,CLR,FEW,0.00,WeatherDisplay:10.37,2013-03-18 05:39:00,
2013-03-18 01:44:00,55.8,47.6,30.03,North,0,0.0,0.0,74,0.00,CLR,FEW,0.00,WeatherDisplay:10.37,2013-03-18 05:44:00,
2013-03-18 01:49:00,55.4,48.3,30.03,North,0,0.0,0.0,77,0.00,CLR,FEW,0.00,WeatherDisplay:10.37,2013-03-18 05:49:00,
2013-03-18 01:54:00,55.2,49.5,30.03,North,0,0.0,0.0,81,0.00,CLR,FEW,0.00,WeatherDisplay:10.37,2013-03-18 05:54:00,
2013-03-18 01:59:00,55.0,49.6,30.03,North,0,0.0,0.0,82,0.00,CLR,FEW,0.00,WeatherDisplay:10.37,2013-03-18 05:59:00,
2013-03-18 02:04:00,55.0,50.0,30.03,North,0,0.0,0.0,83,0.00,CLR,FEW,0.00,WeatherDisplay:10.37,2013-03-18 06:04:00,
2013-03-18 02:09:00,55.0,50.3,30.03,North,0,0.0,0.0,84,0.00,CLR,FEW,0.00,WeatherDisplay:10.37,2013-03-18 06:09:00,
2013-03-18 02:14:00,54.9,50.1,30.03,North,0,0.0,0.0,84,0.00,CLR,FEW,0.00,WeatherDisplay:10.37,2013-03-18 06:14:00,
2013-03-18 02:19:00,54.9,50.1,30.03,North,0,0.0,0.0,84,0.00,CLR,FEW,0.00,WeatherDisplay:10.37,2013-03-18 06:19:00,
2013-03-18 02:24:00,54.7,50.3,30.03,North,0,0.0,0.0,85,0.00,CLR,FEW,0.00,WeatherDisplay:10.37,2013-03-18 06:24:00,
2013-03-18 02:29:00,54.7,50.3,30.03,North,0,0.0,0.0,85,0.00,CLR,FEW,0.00,WeatherDisplay:10.37,2013-03-18 06:29:00,
2013-03-18 02:34:00,54.7,50.6,30.03,North,0,0.0,0.0,86,0.00,CLR,FEW,0.00,WeatherDisplay:10.37,2013-03-18 06:34:00,
2013-03-18 02:39:00,54.7,50.6,30.03,North,0,0.0,0.0,86,0.00,CLR,FEW,0.00,WeatherDisplay:10.37,2013-03-18 06:39:00,
2013-03-18 02:44:00,54.7,50.6,30.06,North,0,0.0,0.0,86,0.00,CLR,FEW,0.00,WeatherDisplay:10.37,2013-03-18 06:44:00,
2013-03-18 02:49:00,54.9,51.1,30.06,North,0,0.0,0.0,87,0.00,CLR,FEW,0.00,WeatherDisplay:10.37,2013-03-18 06:49:00,
2013-03-18 02:54:00,54.9,51.1,30.06,North,0,0.0,0.0,87,0.00,CLR,FEW,0.00,WeatherDisplay:10.37,2013-03-18 06:54:00,
2013-03-18 02:59:00,54.9,51.4,30.06,North,0,0.0,0.0,88,0.00,CLR,FEW,0.00,WeatherDisplay:10.37,2013-03-18 06:59:00,
2013-03-18 03:04:00,54.9,51.4,30.06,North,0,0.0,0.0,88,0.00,CLR,FEW,0.00,WeatherDisplay:10.37,2013-03-18 07:04:00,
2013-03-18 03:09:00,54.9,51.4,30.06,North,0,0.0,0.0,88,0.00,CLR,FEW,0.00,WeatherDisplay:10.37,2013-03-18 07:09:00,
2013-03-18 03:14:00,54.9,51.4,30.03,North,0,0.0,0.0,88,0.00,CLR,FEW,0.00,WeatherDisplay:10.37,2013-03-18 07:14:00,
2013-03-18 03:19:00,54.9,51.4,30.03,North,0,0.0,0.0,88,0.00,CLR,FEW,0.00,WeatherDisplay:10.37,2013-03-18 07:19:00,
2013-03-18 03:24:00,54.9,51.7,30.03,North,0,0.0,0.0,89,0.00,CLR,FEW,0.00,WeatherDisplay:10.37,2013-03-18 07:24:00,
2013-03-18 03:29:00,54.9,51.7,30.03,North,0,0.0,0.0,89,0.00,CLR,FEW,0.00,WeatherDisplay:10.37,2013-03-18 07:29:00,
2013-03-18 03:34:00,54.7,51.8,30.03,North,0,0.0,0.0,90,0.00,CLR,FEW,0.00,WeatherDisplay:10.37,2013-03-18 07:34:00,
2013-03-18 03:39:00,54.5,51.6,30.03,North,0,0.0,0.0,90,0.00,CLR,FEW,0.00,WeatherDisplay:10.37,2013-03-18 07:39:00,
2013-03-18 03:44:00,54.5,51.9,30.03,North,0,0.0,0.0,91,0.00,CLR,FEW,0.00,WeatherDisplay:10.37,2013-03-18 07:44:00,
2013-03-18 03:49:00,54.5,51.9,30.03,North,0,0.0,0.0,91,0.00,CLR,FEW,0.00,WeatherDisplay:10.37,2013-03-18 07:49:00,
2013-03-18 03:54:00,54.3,51.7,30.03,North,0,0.0,0.0,91,0.00,CLR,FEW,0.00,WeatherDisplay:10.37,2013-03-18 07:54:00,
2013-03-18 03:59:00,54.1,51.9,30.03,North,0,0.0,0.0,92,0.00,CLR,FEW,0.00,WeatherDisplay:10.37,2013-03-18 07:59:00,
2013-03-18 04:04:00,54.1,51.9,30.03,North,0,0.0,0.0,92,0.00,CLR,FEW,0.00,WeatherDisplay:10.37,2013-03-18 08:04:00,
2013-03-18 04:09:00,54.0,51.7,30.03,North,0,0.0,0.0,92,0.00,CLR,FEW,0.00,WeatherDisplay:10.37,2013-03-18 08:09:00,
2013-03-18 04:14:00,54.0,51.7,30.03,North,0,0.0,0.0,92,0.00,CLR,FEW,0.00,WeatherDisplay:10.37,2013-03-18 08:14:00,
2013-03-18 04:19:00,53.8,51.5,30.03,North,0,0.0,0.0,92,0.00,CLR,FEW,0.00,WeatherDisplay:10.37,2013-03-18 08:19:00,
2013-03-18 04:24:00,53.6,51.0,30.03,North,0,0.0,0.0,91,0.00,CLR,FEW,0.00,WeatherDisplay:10.37,2013-03-18 08:24:00,
2013-03-18 04:29:00,53.6,51.0,30.03,North,0,0.0,0.0,91,0.00,CLR,FEW,0.00,WeatherDisplay:10.37,2013-03-18 08:29:00,
2013-03-18 04:34:00,53.4,51.2,30.03,North,0,0.0,0.0,92,0.00,CLR,FEW,0.00,WeatherDisplay:10.37,2013-03-18 08:34:00,
2013-03-18 04:39:00,53.4,51.2,30.03,North,0,0.0,0.0,92,0.00,CLR,FEW,0.00,WeatherDisplay:10.37,2013-03-18 08:39:00,
2013-03-18 04:44:00,53.2,51.0,30.03,North,0,0.0,0.0,92,0.00,CLR,FEW,0.00,WeatherDisplay:10.37,2013-03-18 08:44:00,
2013-03-18 04:49:00,53.2,50.7,30.03,North,0,0.0,0.0,91,0.00,CLR,FEW,0.00,WeatherDisplay:10.37,2013-03-18 08:49:00,
2013-03-18 04:54:00,53.1,50.5,30.03,North,0,0.0,0.0,91,0.00,CLR,FEW,0.00,WeatherDisplay:10.37,2013-03-18 08:54:00,
2013-03-18 04:59:00,53.1,50.5,30.03,North,0,0.0,0.0,91,0.00,CLR,FEW,0.00,WeatherDisplay:10.37,2013-03-18 08:59:00,
2013-03-18 05:04:00,53.1,50.5,30.03,North,0,0.0,0.0,91,0.00,CLR,FEW,0.00,WeatherDisplay:10.37,2013-03-18 09:04:00,
2013-03-18 05:09:00,53.1,50.5,30.03,North,0,0.0,0.0,91,0.00,CLR,FEW,0.00,WeatherDisplay:10.37,2013-03-18 09:09:00,
2013-03-18 05:14:00,53.1,50.5,30.03,North,0,0.0,0.0,91,0.00,CLR,FEW,0.00,WeatherDisplay:10.37,2013-03-18 09:14:00,
2013-03-18 05:19:00,53.1,50.5,30.03,North,0,0.0,0.0,91,0.00,CLR,FEW,0.00,WeatherDisplay:10.37,2013-03-18 09:19:00,
2013-03-18 05:24:00,53.1,50.5,30.03,North,0,0.0,0.0,91,0.00,CLR,FEW,0.00,WeatherDisplay:10.37,2013-03-18 09:24:00,
2013-03-18 05:30:00,53.1,50.5,30.03,North,0,0.0,0.0,91,0.00,CLR,FEW,0.00,WeatherDisplay:10.37,2013-03-18 09:30:00,
2013-03-18 05:35:00,53.1,50.8,30.03,North,0,0.0,0.0,92,0.00,CLR,FEW,0.00,WeatherDisplay:10.37,2013-03-18 09:35:00,
2013-03-18 05:40:00,53.1,50.5,30.03,North,0,0.0,0.0,91,0.00,CLR,FEW,0.00,WeatherDisplay:10.37,2013-03-18 09:40:00,
2013-03-18 05:45:00,52.9,50.3,30.03,North,0,0.0,0.0,91,0.00,CLR,FEW,0.00,WeatherDisplay:10.37,2013-03-18 09:45:00,
2013-03-18 05:50:00,52.9,50.3,30.03,North,0,0.0,0.0,91,0.00,CLR,FEW,0.00,WeatherDisplay:10.37,2013-03-18 09:50:00,
2013-03-18 05:55:00,52.9,50.3,30.03,North,0,0.0,0.0,91,0.00,CLR,FEW,0.00,WeatherDisplay:10.37,2013-03-18 09:55:00,
2013-03-18 06:00:00,52.9,50.3,30.03,North,0,0.0,0.0,91,0.00,CLR,FEW,0.00,WeatherDisplay:10.37,2013-03-18 10:00:00,
2013-03-18 06:05:00,52.9,50.3,30.03,North,0,0.0,0.0,91,0.00,CLR,FEW,0.00,WeatherDisplay:10.37,2013-03-18 10:05:00,
2013-03-18 06:10:00,52.7,49.8,30.03,North,0,0.0,0.0,90,0.00,CLR,FEW,0.00,WeatherDisplay:10.37,2013-03-18 10:10:00,
2013-03-18 06:15:00,52.7,49.8,30.06,North,0,0.0,0.0,90,0.00,CLR,FEW,0.00,WeatherDisplay:10.37,2013-03-18 10:15:00,
2013-03-18 06:20:00,52.7,49.8,30.06,North,0,0.0,0.0,90,0.00,CLR,FEW,0.00,WeatherDisplay:10.37,2013-03-18 10:20:00,
2013-03-18 06:25:00,52.7,49.8,30.06,North,0,0.0,0.0,90,0.00,CLR,FEW,0.00,WeatherDisplay:10.37,2013-03-18 10:25:00,
2013-03-18 06:30:00,52.5,49.7,30.06,North,0,0.0,0.0,90,0.00,CLR,FEW,0.00,WeatherDisplay:10.37,2013-03-18 10:30:00,
2013-03-18 06:35:00,52.5,49.4,30.06,North,0,0.0,0.0,89,0.00,CLR,FEW,0.00,WeatherDisplay:10.37,2013-03-18 10:35:00,
2013-03-18 06:40:00,52.5,49.4,30.06,North,0,0.0,0.0,89,0.00,CLR,FEW,0.00,WeatherDisplay:10.37,2013-03-18 10:40:00,
2013-03-18 06:45:00,52.5,49.4,30.06,North,0,0.0,0.0,89,0.00,CLR,FEW,0.00,WeatherDisplay:10.37,2013-03-18 10:45:00,
2013-03-18 06:50:00,52.3,49.2,30.06,North,0,0.0,0.0,89,0.00,CLR,FEW,0.00,WeatherDisplay:10.37,2013-03-18 10:50:00,
2013-03-18 06:55:00,52.3,49.2,30.06,North,0,0.0,0.0,89,0.00,CLR,FEW,0.00,WeatherDisplay:10.37,2013-03-18 10:55:00,
2013-03-18 07:00:00,52.5,49.4,30.06,North,0,0.0,0.0,89,0.00,CLR,FEW,0.00,WeatherDisplay:10.37,2013-03-18 11:00:00,
2013-03-18 07:05:00,52.5,49.4,30.06,North,0,0.0,0.0,89,0.00,CLR,FEW,0.00,WeatherDisplay:10.37,2013-03-18 11:05:00,
2013-03-18 07:10:00,52.5,49.1,30.06,North,0,0.0,0.0,88,0.00,CLR,FEW,0.00,WeatherDisplay:10.37,2013-03-18 11:10:00,
2013-03-18 07:15:00,52.3,48.9,30.06,North,0,0.0,0.0,88,0.00,CLR,FEW,0.00,WeatherDisplay:10.37,2013-03-18 11:15:00,
2013-03-18 07:20:00,52.2,48.7,30.06,North,0,0.0,0.0,88,0.00,CLR,FEW,0.00,WeatherDisplay:10.37,2013-03-18 11:20:00,
2013-03-18 07:25:00,52.0,48.2,30.06,North,0,0.0,0.0,87,0.00,CLR,FEW,0.00,WeatherDisplay:10.37,2013-03-18 11:25:00,
2013-03-18 07:30:00,51.8,48.1,30.06,North,0,0.0,0.0,87,0.00,CLR,FEW,0.00,WeatherDisplay:10.37,2013-03-18 11:30:00,
2013-03-18 07:35:00,51.6,47.9,30.06,North,0,0.0,0.0,87,0.00,CLR,FEW,0.00,WeatherDisplay:10.37,2013-03-18 11:35:00,
2013-03-18 07:40:00,51.6,47.9,30.06,North,0,0.0,0.0,87,0.00,CLR,FEW,0.00,WeatherDisplay:10.37,2013-03-18 11:40:00,
2013-03-18 07:45:00,51.4,47.7,30.06,North,0,0.0,0.0,87,0.00,CLR,FEW,0.00,WeatherDisplay:10.37,2013-03-18 11:45:00,
2013-03-18 07:50:00,51.3,47.5,30.06,North,0,0.0,0.0,87,0.00,CLR,FEW,0.00,WeatherDisplay:10.37,2013-03-18 11:50:00,
2013-03-18 07:55:00,51.3,47.5,30.06,North,0,0.0,0.0,87,0.00,CLR,FEW,0.00,WeatherDisplay:10.37,2013-03-18 11:55:00,
2013-03-18 08:00:00,51.3,47.5,30.06,North,0,0.0,0.0,87,0.00,CLR,FEW,0.00,WeatherDisplay:10.37,2013-03-18 12:00:00,
2013-03-18 08:05:00,51.4,47.7,30.06,North,0,0.0,0.0,87,0.00,CLR,FEW,0.00,WeatherDisplay:10.37,2013-03-18 12:05:00,
2013-03-18 08:10:00,51.4,47.4,30.06,North,0,0.0,0.0,86,0.00,CLR,FEW,0.00,WeatherDisplay:10.37,2013-03-18 12:10:00,
2013-03-18 08:15:00,51.4,47.4,30.06,North,0,0.0,0.0,86,0.00,CLR,FEW,0.00,WeatherDisplay:10.37,2013-03-18 12:15:00,
2013-03-18 08:20:00,51.4,47.4,30.06,North,0,0.0,0.0,86,0.00,CLR,FEW,0.00,WeatherDisplay:10.37,2013-03-18 12:20:00,
2013-03-18 08:25:00,51.4,47.4,30.06,North,0,0.0,0.0,86,0.00,CLR,FEW,0.00,WeatherDisplay:10.37,2013-03-18 12:25:00,
2013-03-18 08:30:00,51.4,47.4,30.09,North,0,0.0,0.0,86,0.00,CLR,FEW,0.00,WeatherDisplay:10.37,2013-03-18 12:30:00,
2013-03-18 08:35:00,51.4,47.4,30.09,North,0,0.0,0.0,86,0.00,CLR,FEW,0.00,WeatherDisplay:10.37,2013-03-18 12:35:00,
2013-03-18 08:40:00,51.6,47.6,30.09,North,0,0.0,0.0,86,0.00,CLR,FEW,0.00,WeatherDisplay:10.37,2013-03-18 12:40:00,
2013-03-18 08:45:00,51.6,47.3,30.09,North,0,0.0,0.0,85,0.00,CLR,FEW,0.00,WeatherDisplay:10.37,2013-03-18 12:45:00,
2013-03-18 08:50:00,51.6,47.3,30.09,North,0,0.0,0.0,85,0.00,CLR,FEW,0.00,WeatherDisplay:10.37,2013-03-18 12:50:00,
2013-03-18 08:55:00,51.6,47.3,30.09,North,0,0.0,0.0,85,0.00,CLR,FEW,0.00,WeatherDisplay:10.37,2013-03-18 12:55:00,
2013-03-18 09:00:00,51.8,47.4,30.09,North,0,0.0,0.0,85,0.00,CLR,FEW,0.00,WeatherDisplay:10.37,2013-03-18 13:00:00,
2013-03-18 09:05:00,52.2,47.5,30.09,North,0,0.0,0.0,84,0.00,CLR,FEW,0.00,WeatherDisplay:10.37,2013-03-18 13:05:00,
2013-03-18 09:10:00,52.7,48.0,30.09,North,0,0.0,0.0,84,0.00,CLR,FEW,0.00,WeatherDisplay:10.37,2013-03-18 13:10:00,
2013-03-18 09:15:00,53.4,48.7,30.09,North,0,0.0,0.0,84,0.00,CLR,FEW,0.00,WeatherDisplay:10.37,2013-03-18 13:15:00,
2013-03-18 09:20:00,54.0,47.9,30.09,North,0,0.0,0.0,80,0.00,CLR,FEW,0.00,WeatherDisplay:10.37,2013-03-18 13:20:00,
2013-03-18 09:25:00,54.5,44.9,30.09,North,0,0.0,0.0,70,0.00,CLR,FEW,0.00,WeatherDisplay:10.37,2013-03-18 13:25:00,
2013-03-18 09:30:00,55.0,43.1,30.09,North,0,0.0,0.0,64,0.00,CLR,FEW,0.00,WeatherDisplay:10.37,2013-03-18 13:30:00,
2013-03-18 09:35:00,55.4,41.3,30.09,North,0,0.0,0.0,59,0.00,CLR,FEW,0.00,WeatherDisplay:10.37,2013-03-18 13:35:00,
2013-03-18 09:40:00,55.9,41.8,30.09,North,0,0.0,0.0,59,0.00,CLR,FEW,0.00,WeatherDisplay:10.37,2013-03-18 13:40:00,
2013-03-18 09:45:00,56.1,40.6,30.09,North,0,0.0,0.0,56,0.00,CLR,FEW,0.00,WeatherDisplay:10.37,2013-03-18 13:45:00,
2013-03-18 09:50:00,55.8,39.4,30.09,North,0,0.0,0.0,54,0.00,CLR,FEW,0.00,WeatherDisplay:10.37,2013-03-18 13:50:00,
2013-03-18 09:55:00,55.9,40.9,30.09,North,0,0.0,0.0,57,0.00,CLR,FEW,0.00,WeatherDisplay:10.37,2013-03-18 13:55:00,
2013-03-18 10:00:00,55.9,40.5,30.09,North,0,0.0,0.0,56,0.00,CLR,FEW,0.00,WeatherDisplay:10.37,2013-03-18 14:00:00,
2013-03-18 10:05:00,56.1,40.2,30.09,North,0,0.0,0.0,55,0.00,CLR,FEW,0.00,WeatherDisplay:10.37,2013-03-18 14:05:00,
2013-03-18 10:10:00,56.1,39.7,30.09,North,0,0.0,0.0,54,0.00,CLR,FEW,0.00,WeatherDisplay:10.37,2013-03-18 14:10:00,
2013-03-18 10:15:00,55.8,39.4,30.09,North,0,0.0,0.0,54,0.00,CLR,FEW,0.00,WeatherDisplay:10.37,2013-03-18 14:15:00,
2013-03-18 10:20:00,55.6,40.1,30.09,North,0,0.0,0.0,56,0.00,CLR,FEW,0.00,WeatherDisplay:10.37,2013-03-18 14:20:00,
2013-03-18 10:25:00,55.6,40.6,30.09,North,0,0.0,0.0,57,0.00,CLR,FEW,0.00,WeatherDisplay:10.37,2013-03-18 14:25:00,
2013-03-18 10:30:00,55.9,39.5,30.09,North,0,0.0,0.0,54,0.00,CLR,FEW,0.00,WeatherDisplay:10.37,2013-03-18 14:30:00,
2013-03-18 10:35:00,55.9,40.0,30.09,North,0,0.0,0.0,55,0.00,CLR,FEW,0.00,WeatherDisplay:10.37,2013-03-18 14:35:00,
2013-03-18 10:40:00,55.9,39.5,30.09,North,0,0.0,0.0,54,0.00,CLR,FEW,0.00,WeatherDisplay:10.37,2013-03-18 14:40:00,
2013-03-18 10:46:00,56.1,39.7,30.09,North,0,0.0,0.0,54,0.00,CLR,FEW,0.00,WeatherDisplay:10.37,2013-03-18 14:46:00,
2013-03-18 10:50:00,56.7,40.7,30.09,North,0,0.0,0.0,55,0.00,CLR,FEW,0.00,WeatherDisplay:10.37,2013-03-18 14:50:00,
2013-03-18 10:55:00,57.2,39.2,30.09,North,0,0.0,0.0,51,0.00,CLR,FEW,0.00,WeatherDisplay:10.37,2013-03-18 14:55:00,
2013-03-18 11:00:00,56.8,38.4,30.09,North,0,0.0,0.0,50,0.00,CLR,FEW,0.00,WeatherDisplay:10.37,2013-03-18 15:00:00,
2013-03-18 11:06:00,56.3,38.4,30.09,North,0,0.0,0.0,51,0.00,CLR,FEW,0.00,WeatherDisplay:10.37,2013-03-18 15:06:00,
2013-03-18 11:11:00,56.8,39.9,30.09,North,0,0.0,0.0,53,0.00,CLR,FEW,0.00,WeatherDisplay:10.37,2013-03-18 15:11:00,
2013-03-18 11:17:00,56.8,38.4,30.09,North,0,0.0,0.0,50,0.00,CLR,FEW,0.00,WeatherDisplay:10.37,2013-03-18 15:17:00,
2013-03-18 11:22:00,56.7,38.7,30.09,North,0,0.0,0.0,51,0.00,CLR,FEW,0.00,WeatherDisplay:10.37,2013-03-18 15:22:00,
2013-03-18 11:27:00,56.7,38.7,30.09,North,0,0.0,0.0,51,0.00,CLR,FEW,0.00,WeatherDisplay:10.37,2013-03-18 15:27:00,
2013-03-18 11:32:00,56.8,38.9,30.09,North,0,0.0,0.0,51,0.00,CLR,FEW,0.00,WeatherDisplay:10.37,2013-03-18 15:32:00,
2013-03-18 11:37:00,56.8,38.9,30.09,North,0,0.0,0.0,51,0.00,CLR,FEW,0.00,WeatherDisplay:10.37,2013-03-18 15:37:00,
2013-03-18 11:42:00,56.7,38.7,30.09,North,0,0.0,0.0,51,0.00,CLR,FEW,0.00,WeatherDisplay:10.37,2013-03-18 15:42:00,
2013-03-18 11:47:00,56.3,38.9,30.09,North,0,0.0,0.0,52,0.00,CLR,FEW,0.00,WeatherDisplay:10.37,2013-03-18 15:47:00,
2013-03-18 11:52:00,56.1,39.2,30.09,North,0,0.0,0.0,53,0.00,CLR,FEW,0.00,WeatherDisplay:10.37,2013-03-18 15:52:00,
2013-03-18 11:58:00,57.2,39.2,30.06,North,0,0.0,0.0,51,0.00,CLR,FEW,0.00,WeatherDisplay:10.37,2013-03-18 15:58:00,
2013-03-18 12:03:00,57.0,38.5,30.06,North,0,0.0,0.0,50,0.00,CLR,FEW,0.00,WeatherDisplay:10.37,2013-03-18 16:03:00,
2013-03-18 12:08:00,57.0,38.5,30.06,North,0,0.0,0.0,50,0.00,CLR,FEW,0.00,WeatherDisplay:10.37,2013-03-18 16:08:00,
2013-03-18 12:13:00,56.3,38.4,30.06,North,0,0.0,0.0,51,0.00,CLR,FEW,0.00,WeatherDisplay:10.37,2013-03-18 16:13:00,
2013-03-18 12:18:00,55.4,39.0,30.06,North,0,0.0,0.0,54,0.00,CLR,FEW,0.00,WeatherDisplay:10.37,2013-03-18 16:18:00,
2013-03-18 12:23:00,55.2,40.2,30.06,North,0,0.0,0.0,57,0.00,CLR,FEW,0.00,WeatherDisplay:10.37,2013-03-18 16:23:00,
2013-03-18 12:28:00,55.2,40.7,30.06,North,0,0.0,0.0,58,0.00,CLR,FEW,0.00,WeatherDisplay:10.37,2013-03-18 16:28:00,
2013-03-18 12:33:00,55.2,40.2,30.06,North,0,0.0,0.0,57,0.00,CLR,FEW,0.00,WeatherDisplay:10.37,2013-03-18 16:33:00,
2013-03-18 12:38:00,55.4,40.4,30.06,North,0,0.0,0.0,57,0.00,CLR,FEW,0.00,WeatherDisplay:10.37,2013-03-18 16:38:00,
2013-03-18 12:43:00,55.6,40.6,30.06,North,0,0.0,0.0,57,0.00,CLR,FEW,0.00,WeatherDisplay:10.37,2013-03-18 16:43:00,
2013-03-18 12:48:00,55.8,40.7,30.06,North,0,0.0,0.0,57,0.00,CLR,FEW,0.00,WeatherDisplay:10.37,2013-03-18 16:48:00,
2013-03-18 12:53:00,55.8,39.8,30.06,North,0,0.0,0.0,55,0.00,CLR,FEW,0.00,WeatherDisplay:10.37,2013-03-18 16:53:00,
2013-03-18 12:58:00,56.1,40.6,30.06,North,0,0.0,0.0,56,0.00,CLR,FEW,0.00,WeatherDisplay:10.37,2013-03-18 16:58:00,
2013-03-18 13:03:00,56.1,39.7,30.06,North,0,0.0,0.0,54,0.00,CLR,FEW,0.00,WeatherDisplay:10.37,2013-03-18 17:03:00,
2013-03-18 13:08:00,55.6,40.1,30.06,North,0,0.0,0.0,56,0.00,CLR,FEW,0.00,WeatherDisplay:10.37,2013-03-18 17:08:00,
2013-03-18 13:13:00,55.2,40.2,30.06,North,0,0.0,0.0,57,0.00,CLR,FEW,0.00,WeatherDisplay:10.37,2013-03-18 17:13:00,
2013-03-18 13:18:00,55.2,41.1,30.06,North,0,0.0,0.0,59,0.00,CLR,FEW,0.00,WeatherDisplay:10.37,2013-03-18 17:18:00,
2013-03-18 13:23:00,55.6,41.0,30.06,North,0,0.0,0.0,58,0.00,CLR,FEW,0.00,WeatherDisplay:10.37,2013-03-18 17:23:00,
2013-03-18 13:28:00,56.3,42.1,30.06,North,0,0.0,0.0,59,0.00,CLR,FEW,0.00,WeatherDisplay:10.37,2013-03-18 17:28:00,
2013-03-18 13:33:00,56.3,40.3,30.06,North,0,0.0,0.0,55,0.00,CLR,FEW,0.00,WeatherDisplay:10.37,2013-03-18 17:33:00,
2013-03-18 13:38:00,56.5,41.4,30.06,North,0,0.0,0.0,57,0.00,CLR,FEW,0.00,WeatherDisplay:10.37,2013-03-18 17:38:00,
2013-03-18 13:43:00,56.7,41.1,30.06,North,0,0.0,0.0,56,0.00,CLR,FEW,0.00,WeatherDisplay:10.37,2013-03-18 17:43:00,
2013-03-18 13:48:00,56.8,41.8,30.03,North,0,0.0,0.0,57,0.00,CLR,FEW,0.00,WeatherDisplay:10.37,2013-03-18 17:48:00,
2013-03-18 13:53:00,57.0,41.5,30.03,North,0,0.0,0.0,56,0.00,CLR,FEW,0.00,WeatherDisplay:10.37,2013-03-18 17:53:00,
2013-03-18 13:58:00,57.2,41.6,30.03,North,0,0.0,0.0,56,0.00,CLR,FEW,0.00,WeatherDisplay:10.37,2013-03-18 17:58:00,
2013-03-18 14:03:00,57.7,40.7,30.03,North,0,0.0,0.0,53,0.00,CLR,FEW,0.00,WeatherDisplay:10.37,2013-03-18 18:03:00,
2013-03-18 14:08:00,58.1,41.5,30.03,North,0,0.0,0.0,54,0.00,CLR,FEW,0.00,WeatherDisplay:10.37,2013-03-18 18:08:00,
2013-03-18 14:13:00,58.5,39.9,30.03,North,0,0.0,0.0,50,0.00,CLR,FEW,0.00,WeatherDisplay:10.37,2013-03-18 18:13:00,
2013-03-18 14:18:00,58.1,40.1,30.03,North,0,0.0,0.0,51,0.00,CLR,FEW,0.00,WeatherDisplay:10.37,2013-03-18 18:18:00,
2013-03-18 14:23:00,57.2,40.2,30.03,North,0,0.0,0.0,53,0.00,CLR,FEW,0.00,WeatherDisplay:10.37,2013-03-18 18:23:00,
2013-03-18 14:28:00,57.2,43.0,30.03,North,0,0.0,0.0,59,0.00,CLR,FEW,0.00,WeatherDisplay:10.37,2013-03-18 18:28:00,
2013-03-18 14:33:00,57.6,42.4,30.00,North,0,0.0,0.0,57,0.00,CLR,FEW,0.00,WeatherDisplay:10.37,2013-03-18 18:33:00,
2013-03-18 14:38:00,58.1,41.5,30.00,North,0,0.0,0.0,54,0.00,CLR,FEW,0.00,WeatherDisplay:10.37,2013-03-18 18:38:00,
2013-03-18 14:43:00,58.1,41.5,30.00,North,0,0.0,0.0,54,0.00,CLR,FEW,0.00,WeatherDisplay:10.37,2013-03-18 18:43:00,
2013-03-18 14:48:00,58.1,42.5,30.00,North,0,0.0,0.0,56,0.00,CLR,FEW,0.00,WeatherDisplay:10.37,2013-03-18 18:48:00,
2013-03-18 14:53:00,58.3,42.2,30.00,North,0,0.0,0.0,55,0.00,CLR,FEW,0.00,WeatherDisplay:10.37,2013-03-18 18:53:00,
2013-03-18 14:58:00,57.2,41.6,30.00,North,0,0.0,0.0,56,0.00,CLR,FEW,0.00,WeatherDisplay:10.37,2013-03-18 18:58:00,
2013-03-18 15:04:00,56.5,44.0,30.00,North,0,0.0,0.0,63,0.00,CLR,FEW,0.00,WeatherDisplay:10.37,2013-03-18 19:04:00,
2013-03-18 15:09:00,55.9,44.3,30.00,North,0,0.0,0.0,65,0.00,CLR,FEW,0.00,WeatherDisplay:10.37,2013-03-18 19:09:00,
2013-03-18 15:15:00,55.6,45.2,30.00,North,0,0.0,0.0,68,0.00,CLR,FEW,0.00,WeatherDisplay:10.37,2013-03-18 19:15:00,
2013-03-18 15:20:00,55.8,46.9,30.00,North,0,0.0,0.0,72,0.00,CLR,FEW,0.00,WeatherDisplay:10.37,2013-03-18 19:20:00,
2013-03-18 15:25:00,55.8,46.5,30.00,North,0,0.0,0.0,71,0.00,CLR,FEW,0.00,WeatherDisplay:10.37,2013-03-18 19:25:00,
2013-03-18 15:30:00,55.8,46.9,29.97,North,0,0.0,0.0,72,0.00,CLR,FEW,0.00,WeatherDisplay:10.37,2013-03-18 19:30:00,
2013-03-18 15:35:00,55.9,47.0,29.97,North,0,0.0,0.0,72,0.00,CLR,FEW,0.00,WeatherDisplay:10.37,2013-03-18 19:35:00,
2013-03-18 15:42:00,55.9,47.0,29.97,North,0,0.0,0.0,72,0.00,CLR,FEW,0.00,WeatherDisplay:10.37,2013-03-18 19:42:00,
2013-03-18 15:47:00,56.1,47.2,29.97,North,0,0.0,0.0,72,0.00,CLR,FEW,0.00,WeatherDisplay:10.37,2013-03-18 19:47:00,
2013-03-18 15:53:00,55.9,47.0,29.97,North,0,0.0,0.0,72,0.00,CLR,FEW,0.00,WeatherDisplay:10.37,2013-03-18 19:53:00,
2013-03-18 15:58:00,55.8,47.6,29.97,North,0,0.0,0.0,74,0.00,CLR,FEW,0.00,WeatherDisplay:10.37,2013-03-18 19:58:00,
2013-03-18 16:03:00,55.8,48.0,29.97,North,0,0.0,0.0,75,0.00,CLR,FEW,0.00,WeatherDisplay:10.37,2013-03-18 20:03:00,
2013-03-18 16:08:00,55.6,47.8,29.97,North,0,0.0,0.0,75,0.00,CLR,FEW,0.00,WeatherDisplay:10.37,2013-03-18 20:08:00,
2013-03-18 16:13:00,55.8,49.0,29.97,North,0,0.0,0.0,78,0.00,CLR,FEW,0.00,WeatherDisplay:10.37,2013-03-18 20:13:00,
2013-03-18 16:18:00,55.8,49.0,29.97,North,0,0.0,0.0,78,0.00,CLR,FEW,0.00,WeatherDisplay:10.37,2013-03-18 20:18:00,
2013-03-18 16:23:00,55.9,49.2,29.97,North,0,0.0,0.0,78,0.00,CLR,FEW,0.00,WeatherDisplay:10.37,2013-03-18 20:23:00,
2013-03-18 16:28:00,55.8,49.0,29.97,North,0,0.0,0.0,78,0.00,CLR,FEW,0.00,WeatherDisplay:10.37,2013-03-18 20:28:00,
2013-03-18 16:33:00,55.4,48.7,29.97,North,0,0.0,0.0,78,0.00,CLR,FEW,0.00,WeatherDisplay:10.37,2013-03-18 20:33:00,
2013-03-18 16:39:00,55.4,49.3,29.97,North,0,0.0,0.0,80,0.00,CLR,FEW,0.00,WeatherDisplay:10.37,2013-03-18 20:39:00,
2013-03-18 16:44:00,55.4,50.0,29.94,North,0,0.0,0.0,82,0.00,CLR,FEW,0.00,WeatherDisplay:10.37,2013-03-18 20:44:00,
2013-03-18 16:49:00,55.8,50.7,29.94,North,0,0.0,0.0,83,0.00,CLR,FEW,0.00,WeatherDisplay:10.37,2013-03-18 20:49:00,
2013-03-18 16:54:00,56.1,51.7,29.94,North,0,0.0,0.0,85,0.00,CLR,FEW,0.00,WeatherDisplay:10.37,2013-03-18 20:54:00,
2013-03-18 16:59:00,56.5,51.7,29.94,North,0,0.0,0.0,84,0.00,CLR,FEW,0.00,WeatherDisplay:10.37,2013-03-18 20:59:00,
2013-03-18 17:04:00,56.5,51.4,29.94,North,0,0.0,0.0,83,0.00,CLR,FEW,0.00,WeatherDisplay:10.37,2013-03-18 21:04:00,
2013-03-18 17:09:00,56.5,50.4,29.94,North,0,0.0,0.0,80,0.00,CLR,FEW,0.00,WeatherDisplay:10.37,2013-03-18 21:09:00,
2013-03-18 17:14:00,56.3,49.5,29.94,North,0,0.0,0.0,78,0.00,CLR,FEW,0.00,WeatherDisplay:10.37,2013-03-18 21:14:00,
2013-03-18 17:19:00,56.3,49.5,29.94,North,0,0.0,0.0,78,0.00,CLR,FEW,0.00,WeatherDisplay:10.37,2013-03-18 21:19:00,
2013-03-18 17:25:00,56.3,49.9,29.94,North,0,0.0,0.0,79,0.00,CLR,FEW,0.00,WeatherDisplay:10.37,2013-03-18 21:25:00,
2013-03-18 17:30:00,56.3,50.2,29.94,North,0,0.0,0.0,80,0.00,CLR,FEW,0.00,WeatherDisplay:10.37,2013-03-18 21:30:00,
2013-03-18 17:35:00,56.3,50.2,29.94,North,0,0.0,0.0,80,0.00,CLR,FEW,0.00,WeatherDisplay:10.37,2013-03-18 21:35:00,
2013-03-18 17:40:00,56.3,50.2,29.94,North,0,0.0,0.0,80,0.00,CLR,FEW,0.00,WeatherDisplay:10.37,2013-03-18 21:40:00,
2013-03-18 17:45:00,56.3,50.5,29.91,North,0,0.0,0.0,81,0.00,CLR,FEW,0.00,WeatherDisplay:10.37,2013-03-18 21:45:00,
2013-03-18 17:50:00,56.5,51.1,29.91,North,0,0.0,0.0,82,0.00,CLR,FEW,0.00,WeatherDisplay:10.37,2013-03-18 21:50:00,
2013-03-18 17:55:00,56.5,50.7,29.91,North,0,0.0,0.0,81,0.00,CLR,FEW,0.00,WeatherDisplay:10.37,2013-03-18 21:55:00,
2013-03-18 18:00:00,56.5,50.7,29.94,North,0,0.0,0.0,81,0.00,CLR,FEW,0.00,WeatherDisplay:10.37,2013-03-18 22:00:00,
2013-03-18 18:05:00,56.3,50.5,29.94,North,0,0.0,0.0,81,0.00,CLR,FEW,0.00,WeatherDisplay:10.37,2013-03-18 22:05:00,
2013-03-18 18:10:00,56.3,50.5,29.94,North,0,0.0,0.0,81,0.00,CLR,FEW,0.00,WeatherDisplay:10.37,2013-03-18 22:10:00,
2013-03-18 18:15:00,56.3,50.9,29.94,North,0,0.0,0.0,82,0.00,CLR,FEW,0.00,WeatherDisplay:10.37,2013-03-18 22:15:00,
2013-03-18 18:20:00,56.3,51.2,29.94,North,0,0.0,0.0,83,0.00,CLR,FEW,0.00,WeatherDisplay:10.37,2013-03-18 22:20:00,
2013-03-18 18:25:00,55.9,50.9,29.94,North,0,0.0,0.0,83,0.00,CLR,FEW,0.00,WeatherDisplay:10.37,2013-03-18 22:25:00,
2013-03-18 18:30:00,55.8,51.0,29.94,North,0,0.0,0.0,84,0.00,CLR,FEW,0.00,WeatherDisplay:10.37,2013-03-18 22:30:00,
2013-03-18 18:35:00,55.8,51.0,29.94,North,0,0.0,0.0,84,0.00,CLR,FEW,0.00,WeatherDisplay:10.37,2013-03-18 22:35:00,
2013-03-18 18:40:00,55.8,51.6,29.94,North,0,0.0,0.0,86,0.00,CLR,FEW,0.00,WeatherDisplay:10.37,2013-03-18 22:40:00,
2013-03-18 18:45:00,55.6,51.8,29.91,North,0,0.0,0.0,87,0.00,CLR,FEW,0.00,WeatherDisplay:10.37,2013-03-18 22:45:00,
2013-03-18 18:50:00,55.6,52.1,29.91,North,0,0.0,0.0,88,0.00,CLR,FEW,0.00,WeatherDisplay:10.37,2013-03-18 22:50:00,
2013-03-18 18:55:00,55.6,52.1,29.91,North,0,0.0,0.0,88,0.00,CLR,FEW,0.00,WeatherDisplay:10.37,2013-03-18 22:55:00,
2013-03-18 19:00:00,55.6,52.1,29.91,North,0,0.0,0.0,88,0.00,CLR,FEW,0.00,WeatherDisplay:10.37,2013-03-18 23:00:00,
2013-03-18 19:05:00,55.6,52.4,29.91,North,0,0.0,0.0,89,0.00,CLR,FEW,0.00,WeatherDisplay:10.37,2013-03-18 23:05:00,
2013-03-18 19:10:00,55.6,52.4,29.91,North,0,0.0,0.0,89,0.00,CLR,FEW,0.00,WeatherDisplay:10.37,2013-03-18 23:10:00,
2013-03-18 19:15:00,55.4,52.2,29.91,North,0,0.0,0.0,89,0.00,CLR,FEW,0.00,WeatherDisplay:10.37,2013-03-18 23:15:00,
2013-03-18 19:20:00,55.4,52.2,29.91,North,0,0.0,0.0,89,0.00,CLR,FEW,0.00,WeatherDisplay:10.37,2013-03-18 23:20:00,
2013-03-18 19:25:00,55.4,52.5,29.91,North,0,0.0,0.0,90,0.00,CLR,FEW,0.00,WeatherDisplay:10.37,2013-03-18 23:25:00,
2013-03-18 19:30:00,55.4,52.5,29.91,North,0,0.0,0.0,90,0.00,CLR,FEW,0.00,WeatherDisplay:10.37,2013-03-18 23:30:00,
2013-03-18 19:35:00,55.2,52.3,29.91,North,0,0.0,0.0,90,0.00,CLR,FEW,0.00,WeatherDisplay:10.37,2013-03-18 23:35:00,
2013-03-18 19:40:00,55.2,52.6,29.91,North,0,0.0,0.0,91,0.00,CLR,FEW,0.00,WeatherDisplay:10.37,2013-03-18 23:40:00,
2013-03-18 19:45:00,55.2,52.6,29.91,North,0,0.0,0.0,91,0.00,CLR,FEW,0.00,WeatherDisplay:10.37,2013-03-18 23:45:00,
2013-03-18 19:50:00,55.2,52.6,29.91,North,0,0.0,0.0,91,0.00,CLR,FEW,0.00,WeatherDisplay:10.37,2013-03-18 23:50:00,
2013-03-18 19:55:00,55.2,52.9,29.91,North,0,0.0,0.0,92,0.00,CLR,FEW,0.00,WeatherDisplay:10.37,2013-03-18 23:55:00,
2013-03-18 20:00:00,55.4,53.1,29.91,North,0,0.0,0.0,92,0.00,CLR,FEW,0.00,WeatherDisplay:10.37,2013-03-19 00:00:00,
2013-03-18 20:05:00,55.4,53.1,29.91,North,0,0.0,0.0,92,0.00,CLR,FEW,0.00,WeatherDisplay:10.37,2013-03-19 00:05:00,
2013-03-18 20:10:00,55.4,53.1,29.91,North,0,0.0,0.0,92,0.00,CLR,FEW,0.00,WeatherDisplay:10.37,2013-03-19 00:10:00,
2013-03-18 20:15:00,55.4,53.1,29.91,North,0,0.0,0.0,92,0.00,CLR,FEW,0.00,WeatherDisplay:10.37,2013-03-19 00:15:00,
2013-03-18 20:20:00,55.4,53.4,29.91,North,0,0.0,0.0,93,0.00,CLR,FEW,0.00,WeatherDisplay:10.37,2013-03-19 00:20:00,
2013-03-18 20:25:00,55.4,53.4,29.91,North,0,0.0,0.0,93,0.00,CLR,FEW,0.00,WeatherDisplay:10.37,2013-03-19 00:25:00,
2013-03-18 20:30:00,55.4,53.4,29.91,North,0,0.0,0.0,93,0.00,CLR,FEW,0.00,WeatherDisplay:10.37,2013-03-19 00:30:00,
2013-03-18 20:35:00,55.4,53.4,29.91,North,0,0.0,0.0,93,0.00,CLR,FEW,0.00,WeatherDisplay:10.37,2013-03-19 00:35:00,
2013-03-18 20:40:00,55.4,53.4,29.91,North,0,0.0,0.0,93,0.00,CLR,FEW,0.00,WeatherDisplay:10.37,2013-03-19 00:40:00,
2013-03-18 20:45:00,55.4,53.4,29.91,North,0,0.0,0.0,93,0.00,CLR,FEW,0.00,WeatherDisplay:10.37,2013-03-19 00:45:00,
2013-03-18 20:50:00,55.4,53.4,29.91,North,0,0.0,0.0,93,0.00,CLR,FEW,0.00,WeatherDisplay:10.37,2013-03-19 00:50:00,
2013-03-18 20:55:00,55.6,53.6,29.91,North,0,0.0,0.0,93,0.00,CLR,FEW,0.00,WeatherDisplay:10.37,2013-03-19 00:55:00,
2013-03-18 21:00:00,55.6,53.6,29.91,North,0,0.0,0.0,93,0.00,CLR,FEW,0.00,WeatherDisplay:10.37,2013-03-19 01:00:00,
2013-03-18 21:05:00,55.6,53.6,29.91,North,0,0.0,0.0,93,0.00,CLR,FEW,0.00,WeatherDisplay:10.37,2013-03-19 01:05:00,
2013-03-18 21:10:00,55.4,53.4,29.91,North,0,0.0,0.0,93,0.00,CLR,FEW,0.00,WeatherDisplay:10.37,2013-03-19 01:10:00,
2013-03-18 21:15:00,55.4,53.4,29.88,North,0,0.0,0.0,93,0.00,CLR,FEW,0.00,WeatherDisplay:10.37,2013-03-19 01:15:00,
2013-03-18 21:20:00,55.4,53.7,29.88,North,0,0.0,0.0,94,0.00,CLR,FEW,0.00,WeatherDisplay:10.37,2013-03-19 01:20:00,
2013-03-18 21:25:00,55.4,53.7,29.88,North,0,0.0,0.0,94,0.00,CLR,FEW,0.00,WeatherDisplay:10.37,2013-03-19 01:25:00,
2013-03-18 21:30:00,55.2,53.8,29.85,North,0,0.0,0.0,95,0.00,CLR,FEW,0.00,WeatherDisplay:10.37,2013-03-19 01:30:00,
2013-03-18 21:35:00,55.2,54.1,29.85,North,0,0.0,0.0,96,0.00,CLR,FEW,0.00,WeatherDisplay:10.37,2013-03-19 01:35:00,
2013-03-18 21:40:00,55.0,53.9,29.85,North,0,0.0,0.0,96,0.00,CLR,FEW,0.00,WeatherDisplay:10.37,2013-03-19 01:40:00,
2013-03-18 21:45:00,55.0,54.2,29.85,North,0,0.0,0.0,97,0.00,CLR,FEW,0.00,WeatherDisplay:10.37,2013-03-19 01:45:00,
2013-03-18 21:50:00,55.0,54.2,29.85,North,0,0.0,0.0,97,0.00,CLR,FEW,0.00,WeatherDisplay:10.37,2013-03-19 01:50:00,
2013-03-18 21:55:00,55.0,54.2,29.85,North,0,0.0,0.0,97,0.00,CLR,FEW,0.00,WeatherDisplay:10.37,2013-03-19 01:55:00,
2013-03-18 22:00:00,55.2,54.7,29.85,North,0,0.0,0.0,98,0.00,CLR,FEW,0.00,WeatherDisplay:10.37,2013-03-19 02:00:00,
2013-03-18 22:05:00,55.2,54.7,29.85,North,0,0.0,0.0,98,0.00,CLR,FEW,0.00,WeatherDisplay:10.37,2013-03-19 02:05:00,
2013-03-18 22:10:00,55.4,54.8,29.85,North,0,0.0,0.0,98,0.00,CLR,FEW,0.00,WeatherDisplay:10.37,2013-03-19 02:10:00,
2013-03-18 22:17:00,55.4,54.8,29.85,North,0,0.0,0.0,98,0.00,CLR,FEW,0.00,WeatherDisplay:10.37,2013-03-19 02:17:00,
2013-03-18 22:23:00,55.6,55.0,29.85,North,0,0.0,0.0,98,0.00,CLR,FEW,0.00,WeatherDisplay:10.37,2013-03-19 02:23:00,
2013-03-18 22:28:00,55.6,55.0,29.85,North,0,0.0,0.0,98,0.00,CLR,FEW,0.00,WeatherDisplay:10.37,2013-03-19 02:28:00,
2013-03-18 22:33:00,55.6,55.0,29.85,North,0,0.0,0.0,98,0.00,CLR,FEW,0.00,WeatherDisplay:10.37,2013-03-19 02:33:00,
2013-03-18 22:39:00,55.6,55.0,29.85,North,0,0.0,0.0,98,0.00,CLR,FEW,0.00,WeatherDisplay:10.37,2013-03-19 02:39:00,
2013-03-18 22:44:00,55.6,55.0,29.85,North,0,0.0,0.0,98,0.00,CLR,FEW,0.00,WeatherDisplay:10.37,2013-03-19 02:44:00,
2013-03-18 22:49:00,55.6,55.0,29.85,North,0,0.0,0.0,98,0.00,CLR,FEW,0.00,WeatherDisplay:10.37,2013-03-19 02:49:00,
2013-03-18 22:54:00,55.6,55.0,29.85,North,0,0.0,0.0,98,0.00,CLR,FEW,0.00,WeatherDisplay:10.37,2013-03-19 02:54:00,
2013-03-18 22:59:00,55.8,55.2,29.85,North,0,0.0,0.0,98,0.00,CLR,FEW,0.00,WeatherDisplay:10.37,2013-03-19 02:59:00,
2013-03-18 23:05:00,55.8,55.2,29.85,North,0,0.0,0.0,98,0.00,CLR,FEW,0.00,WeatherDisplay:10.37,2013-03-19 03:05:00,
2013-03-18 23:10:00,55.8,55.2,29.85,North,0,0.0,0.0,98,0.00,CLR,FEW,0.00,WeatherDisplay:10.37,2013-03-19 03:10:00,
2013-03-18 23:15:00,55.8,55.2,29.85,North,0,0.0,0.0,98,0.00,CLR,FEW,0.00,WeatherDisplay:10.37,2013-03-19 03:15:00,
2013-03-18 23:20:00,55.8,55.2,29.85,North,0,0.0,0.0,98,0.00,CLR,FEW,0.00,WeatherDisplay:10.37,2013-03-19 03:20:00,
2013-03-18 23:25:00,55.9,55.4,29.85,North,0,0.0,0.0,98,0.00,CLR,FEW,0.00,WeatherDisplay:10.37,2013-03-19 03:25:00,
2013-03-18 23:30:00,55.9,55.4,29.85,North,0,0.0,0.0,98,0.00,CLR,FEW,0.00,WeatherDisplay:10.37,2013-03-19 03:30:00,
2013-03-18 23:35:00,55.9,55.4,29.85,North,0,0.0,0.0,98,0.00,CLR,FEW,0.00,WeatherDisplay:10.37,2013-03-19 03:35:00,
2013-03-18 23:40:00,56.1,55.6,29.85,North,0,0.0,0.0,98,0.00,CLR,FEW,0.00,WeatherDisplay:10.37,2013-03-19 03:40:00,
2013-03-18 23:45:00,56.1,55.6,29.85,North,0,0.0,0.0,98,0.00,CLR,FEW,0.00,WeatherDisplay:10.37,2013-03-19 03:45:00,
2013-03-18 23:50:00,56.3,55.7,29.85,North,0,0.0,0.0,98,0.00,CLR,FEW,0.00,WeatherDisplay:10.37,2013-03-19 03:50:00,
2013-03-18 23:55:00,56.5,55.9,29.85,North,0,0.0,0.0,98,0.00,CLR,FEW,0.00,WeatherDisplay:10.37,2013-03-19 03:55:00,